Sigfox identifier Datetime Temperature Humidity SNR
0035F777 2019-02-20 13:59:17 20.7 23 24.5
0035F777 2019-02-20 13:29:31 20.7 24 24.5
0035F777 2019-02-20 12:59:46 20.7 24 23.8
0035F777 2019-02-20 12:30:03 20.7 25 23.1
0035F777 2019-02-20 12:00:18 20.7 25 23.1
0035F777 2019-02-20 11:30:32 20.7 26 22.2
0035F777 2019-02-20 11:00:49 20.7 27 21
0035F777 2019-02-20 10:31:04 20.6 27 21.1
0035F777 2019-02-20 10:01:18 20.6 27 19.6
0035F777 2019-02-20 09:31:35 20.6 27 19.7
0035F777 2019-02-20 09:01:50 20.6 27 17.4
0035F777 2019-02-20 08:32:04 20.6 27 17.5
0035F777 2019-02-20 08:02:18 20.6 27 17.1
0035F777 2019-02-20 07:32:32 20.6 27 17.3
0035F777 2019-02-20 07:02:46 20.6 27 17.4
0035F777 2019-02-20 06:33:01 20.6 27 17.3
0035F777 2019-02-20 06:03:16 20.6 27 16.9
0035F777 2019-02-20 05:33:31 20.6 27 16.8
0035F777 2019-02-20 05:03:45 20.6 27 16.6
0035F777 2019-02-20 04:34:01 20.7 27 16.7
0035F777 2019-02-20 04:04:16 20.7 27 16.4
0035F777 2019-02-20 03:34:31 20.7 27 16.2
0035F777 2019-02-20 03:04:46 20.7 27 16.1
0035F777 2019-02-20 02:35:01 20.7 27 16
0035F777 2019-02-20 02:05:16 20.7 27 15.9
0035F777 2019-02-20 01:35:30 20.7 27 15.8
0035F777 2019-02-20 01:05:46 20.7 27 15.7
0035F777 2019-02-20 00:36:03 20.7 27 15.7
0035F777 2019-02-20 00:06:16 20.7 27 15.8
0035F777 2019-02-19 23:36:31 20.7 27 15.9
0035F777 2019-02-19 23:06:45 20.7 27 16.2
0035F777 2019-02-19 22:37:00 20.7 27 19.1
0035F777 2019-02-19 22:06:33 20.7 27 18.9
0035F777 2019-02-19 21:36:48 20.7 27 18.9
0035F777 2019-02-19 21:07:03 20.8 27 19.1
0035F777 2019-02-19 20:07:33 20.8 27 19.5
0035F777 2019-02-19 19:37:49 20.8 27 19.6
0035F777 2019-02-19 19:08:06 20.8 27 19.9
0035F777 2019-02-19 18:38:22 20.9 27 20
0035F777 2019-02-19 17:38:55 20.9 27 20.1
0035F777 2019-02-19 17:09:11 20.9 28 20.3
0035F777 2019-02-19 16:39:27 20.9 28 20.5
0035F777 2019-02-19 16:09:43 20.9 27 20.9
0035F777 2019-02-19 15:40:00 20.9 27 21
0035F777 2019-02-19 15:10:16 20.9 27 21.1
0035F777 2019-02-19 14:40:34 20.9 27 21.3
0035F777 2019-02-19 14:10:50 20.9 27 21.4
0035F777 2019-02-19 13:41:06 20.9 27 21.5
0035F777 2019-02-19 13:11:22 20.9 27 21.7
0035F777 2019-02-19 12:41:39 20.9 27 22.7
0035F777 2019-02-19 12:11:52 20.9 27 22.7
0035F777 2019-02-19 11:42:07 20.8 27 22.7
0035F777 2019-02-19 11:12:24 20.8 27 22.8
0035F777 2019-02-19 10:42:39 20.8 26 22.9
0035F777 2019-02-19 10:12:54 20.7 26 22.9
0035F777 2019-02-19 09:43:07 20.7 26 22.8
0035F777 2019-02-19 09:13:23 20.7 26 21.9
0035F777 2019-02-19 08:43:38 20.6 26 21.9
0035F777 2019-02-19 08:13:53 20.6 25 22
0035F777 2019-02-19 07:44:09 20.6 25 22
0035F777 2019-02-19 07:14:26 20.6 25 21.9
0035F777 2019-02-19 06:44:42 20.6 25 22
0035F777 2019-02-19 06:14:57 20.6 25 22
0035F777 2019-02-19 05:45:13 20.6 25 22
0035F777 2019-02-19 05:15:28 20.6 25 21.9
0035F777 2019-02-19 04:45:44 20.6 24 22.8
0035F777 2019-02-19 04:16:00 20.6 24 22.8
0035F777 2019-02-19 03:46:15 20.6 24 23.4
0035F777 2019-02-19 03:16:31 20.6 24 23.3
0035F777 2019-02-19 02:46:46 20.6 24 23.2
0035F777 2019-02-19 02:17:04 20.6 24 23.2
0035F777 2019-02-19 01:47:21 20.6 24 23.2
0035F777 2019-02-19 01:17:37 20.6 24 23.1
0035F777 2019-02-19 00:47:54 20.6 24 23
0035F777 2019-02-19 00:18:07 20.6 23 22.1
0035F777 2019-02-18 23:48:23 20.6 23 22.2
0035F777 2019-02-18 23:18:38 20.6 23 22.4
0035F777 2019-02-18 22:48:55 20.6 23 22.4
0035F777 2019-02-18 22:19:10 20.6 23 22.5
0035F777 2019-02-18 21:49:26 20.6 23 22.8
0035F777 2019-02-18 21:19:01 20.7 23 22.8
0035F777 2019-02-18 20:49:18 20.7 22 23
0035F777 2019-02-18 20:19:34 20.7 22 23.1
0035F777 2019-02-18 19:49:51 20.7 22 23.1
0035F777 2019-02-18 19:20:08 20.7 22 23.2
0035F777 2019-02-18 18:50:25 20.7 22 23.2
0035F777 2019-02-18 18:20:43 20.8 22 23.2
0035F777 2019-02-18 17:50:59 20.8 22 23.1
0035F777 2019-02-18 17:21:14 20.8 21 23.1
0035F777 2019-02-18 16:51:29 20.8 22 23.3
0035F777 2019-02-18 16:21:45 20.8 21 22.6
0035F777 2019-02-18 15:52:02 20.8 21 22.7
0035F777 2019-02-18 15:22:19 20.8 21 21.7
0035F777 2019-02-18 14:52:37 20.9 21 22.1
0035F777 2019-02-18 14:22:53 20.9 21 22.3
0035F777 2019-02-18 13:53:11 20.9 20 22.4
0035F777 2019-02-18 13:23:29 21 20 22.4
0035F777 2019-02-18 12:53:46 21.1 20 22.5
0035F777 2019-02-18 12:24:03 21.2 19 22.8
0035F777 2019-02-18 11:54:19 21.2 19 22.9
0035F777 2019-02-18 11:24:35 21.2 19 22.9
0035F777 2019-02-18 10:54:52 21.1 19 22.8
0035F777 2019-02-18 10:25:08 21.1 19 22.8
0035F777 2019-02-18 09:55:26 21.1 19 22.8
0035F777 2019-02-18 09:25:43 21.1 18 22.7
0035F777 2019-02-18 08:55:58 21.1 18 22.8
0035F777 2019-02-18 08:26:13 21.1 18 22.7
0035F777 2019-02-18 07:56:30 20.9 18 22.9
0035F777 2019-02-18 07:26:46 20.8 18 22.9
0035F777 2019-02-18 06:57:00 20.7 18 22.8
0035F777 2019-02-18 06:27:15 20.6 18 22.8
0035F777 2019-02-18 05:57:30 20.7 18 22.9
0035F777 2019-02-18 05:27:47 20.7 18 23
0035F777 2019-02-18 04:58:01 20.7 18 22.9
0035F777 2019-02-18 04:28:18 20.7 18 22.9
0035F777 2019-02-18 03:58:34 20.6 18 22.9
0035F777 2019-02-18 03:28:49 20.6 18 22.9
0035F777 2019-02-18 02:59:05 20.6 18 23
0035F777 2019-02-18 02:29:20 20.6 18 22.8
0035F777 2019-02-18 01:59:35 20.7 18 22.8
0035F777 2019-02-18 01:29:50 20.7 18 22.9
0035F777 2019-02-18 01:00:05 20.8 18 22.9
0035F777 2019-02-18 00:30:21 20.7 18 23
0035F777 2019-02-18 00:00:36 20.8 19 23
0035F777 2019-02-17 23:30:53 20.8 18 22.9
0035F777 2019-02-17 23:01:11 20.7 19 23
0035F777 2019-02-17 22:31:25 20.8 19 23.1
0035F777 2019-02-17 22:01:41 20.8 19 23
0035F777 2019-02-17 21:31:58 20.7 19 23
0035F777 2019-02-17 21:02:13 20.7 19 23
0035F777 2019-02-17 20:31:49 20.7 19 23
0035F777 2019-02-17 20:02:04 20.7 19 22.8
0035F777 2019-02-17 19:32:19 20.8 19 22.7
0035F777 2019-02-17 19:02:34 20.8 19 22.7
0035F777 2019-02-17 18:32:49 20.7 20 22.7
0035F777 2019-02-17 18:03:03 20.6 19 22.8
0035F777 2019-02-17 17:33:18 20.7 19 22.8
0035F777 2019-02-17 17:03:33 20.8 19 22.7
0035F777 2019-02-17 16:33:48 20.8 19 22.9
0035F777 2019-02-17 16:04:02 20.7 19 22.8
0035F777 2019-02-17 15:34:16 20.7 20 22.9
0035F777 2019-02-17 15:04:30 20.7 20 22.9
0035F777 2019-02-17 14:34:44 20.7 20 23
0035F777 2019-02-17 14:04:58 20.8 20 23
0035F777 2019-02-17 13:35:13 20.9 20 23.1
0035F777 2019-02-17 13:05:28 21 20 23
0035F777 2019-02-17 12:35:43 21 20 23
0035F777 2019-02-17 12:05:58 20.9 20 23
0035F777 2019-02-17 11:36:12 20.9 20 23
0035F777 2019-02-17 11:06:28 20.9 20 23
0035F777 2019-02-17 10:36:42 20.8 20 22.9
0035F777 2019-02-17 10:06:58 20.8 20 23
0035F777 2019-02-17 09:37:14 20.8 20 23
0035F777 2019-02-17 09:07:30 20.8 21 23.1
0035F777 2019-02-17 08:37:46 20.8 21 23.1
0035F777 2019-02-17 08:08:01 20.8 21 23.1
0035F777 2019-02-17 07:38:16 20.8 21 23.3
0035F777 2019-02-17 07:08:32 20.8 21 23.3
0035F777 2019-02-17 06:38:47 20.8 21 23.3
0035F777 2019-02-17 06:09:04 20.8 21 23.3
0035F777 2019-02-17 05:39:19 20.8 21 23.4
0035F777 2019-02-17 05:09:34 20.9 22 23.4
0035F777 2019-02-17 04:39:50 20.8 22 23.4
0035F777 2019-02-17 04:10:05 20.9 22 23.3
0035F777 2019-02-17 03:40:20 20.9 22 23.4
0035F777 2019-02-17 03:10:36 20.8 23 23.2
0035F777 2019-02-17 02:40:51 20.9 23 23.2
0035F777 2019-02-17 02:11:07 20.9 23 23
0035F777 2019-02-17 01:41:23 20.9 23 23.1
0035F777 2019-02-17 01:11:38 20.8 24 23.1
0035F777 2019-02-17 00:41:52 20.9 24 23
0035F777 2019-02-17 00:12:07 20.9 24 23.1
0035F777 2019-02-16 23:42:23 20.8 24 23.1
0035F777 2019-02-16 23:12:38 20.8 24 23.3
0035F777 2019-02-16 22:42:52 20.8 24 23.9
0035F777 2019-02-16 22:13:06 20.9 24 23.9
0035F777 2019-02-16 21:43:20 21 24 24
0035F777 2019-02-16 21:13:34 20.9 25 24
0035F777 2019-02-16 20:43:48 20.9 25 23.9
0035F777 2019-02-16 20:14:04 20.9 25 23.8
0035F777 2019-02-16 19:43:38 20.9 25 23.8
0035F777 2019-02-16 19:13:53 20.9 25 23.8
0035F777 2019-02-16 18:44:06 20.8 25 23.7
0035F777 2019-02-16 18:14:22 20.7 25 23.7
0035F777 2019-02-16 17:44:36 20.8 25 23.7
0035F777 2019-02-16 17:14:53 20.9 25 23.6
0035F777 2019-02-16 16:45:08 21 25 23.6
0035F777 2019-02-16 16:15:25 21 25 23.7
0035F777 2019-02-16 15:45:38 21 25 23.5
0035F777 2019-02-16 15:15:53 21 25 23.5
0035F777 2019-02-16 14:46:08 21 25 23.6
0035F777 2019-02-16 14:16:24 21 25 23.7
0035F777 2019-02-16 13:46:39 21 25 23.8
0035F777 2019-02-16 13:16:54 21 25 23.8
0035F777 2019-02-16 12:47:09 21 25 23.6
0035F777 2019-02-16 12:17:24 21 25 23.6
0035F777 2019-02-16 11:47:39 21 25 23.6
0035F777 2019-02-16 11:17:52 21 25 23.6
0035F777 2019-02-16 10:48:07 20.9 25 23.6
0035F777 2019-02-16 10:18:21 20.8 25 22.9
0035F777 2019-02-16 09:48:35 20.9 25 22.9
0035F777 2019-02-16 09:18:48 20.9 25 22.6
0035F777 2019-02-16 08:49:02 20.9 25 22.6
0035F777 2019-02-16 08:19:19 20.9 25 22.7
0035F777 2019-02-16 07:49:35 20.9 25 22.8
0035F777 2019-02-16 07:19:50 20.9 25 22.8
0035F777 2019-02-16 06:50:05 20.9 26 22.7
0035F777 2019-02-16 06:20:20 20.9 26 22.7
0035F777 2019-02-16 05:50:35 20.9 25 22.9
0035F777 2019-02-16 05:20:50 20.9 25 22.8
0035F777 2019-02-16 04:51:05 20.9 25 22.8
0035F777 2019-02-16 04:21:20 20.9 26 22.7
0035F777 2019-02-16 03:51:35 20.9 25 22.6
0035F777 2019-02-16 03:21:50 20.8 26 22.6
0035F777 2019-02-16 02:52:06 20.9 25 22.6
0035F777 2019-02-16 02:22:21 20.9 25 22.5
0035F777 2019-02-16 01:52:36 20.9 25 22.5
0035F777 2019-02-16 01:22:51 20.9 26 22.5
0035F777 2019-02-16 00:53:05 21 26 22.4
0035F777 2019-02-16 00:23:20 20.9 26 22.6
0035F777 2019-02-15 23:53:35 20.9 26 22.5
0035F777 2019-02-15 23:23:51 21 26 22.5
0035F777 2019-02-15 22:54:06 20.8 26 22.4
0035F777 2019-02-15 22:24:21 21 26 22.3
0035F777 2019-02-15 21:54:37 21.1 26 23.1
0035F777 2019-02-15 21:24:52 21.1 26 23
0035F777 2019-02-15 20:55:09 21.1 25 23.1
0035F777 2019-02-15 20:25:26 21.2 25 23.1
0035F777 2019-02-15 19:55:41 21.3 25 23.1
0035F777 2019-02-15 19:25:57 21.4 25 23.2
0035F777 2019-02-15 18:55:30 21.5 25 23.3
0035F777 2019-02-15 18:25:46 21.6 25 23.2
0035F777 2019-02-15 17:56:01 21.6 25 23.2
0035F777 2019-02-15 17:26:18 21.6 25 23.1
0035F777 2019-02-15 16:56:33 21.6 24 23.1
0035F777 2019-02-15 16:26:49 21.6 24 23.1
0035F777 2019-02-15 15:57:06 21.4 24 23.1
0035F777 2019-02-15 15:27:22 21.5 23 23.2
0035F777 2019-02-15 14:57:38 21.6 23 23.3
0035F777 2019-02-15 14:27:53 21.5 23 23.3
0035F777 2019-02-15 13:58:09 21.6 23 23.4
0035F777 2019-02-15 13:28:25 21.6 23 23.3
0035F777 2019-02-15 12:58:40 21.5 24 23.3
0035F777 2019-02-15 12:28:56 21.5 24 23.4
0035F777 2019-02-15 11:59:13 21.5 24 23.3
0035F777 2019-02-15 11:29:30 21.4 24 24
0035F777 2019-02-15 10:59:45 21.4 24 24
0035F777 2019-02-15 10:30:01 21.4 24 24
0035F777 2019-02-15 10:00:16 21.4 24 24.1
0035F777 2019-02-15 09:30:33 21.4 24 23.5
0035F777 2019-02-15 09:00:49 21.4 25 23.4
0035F777 2019-02-15 08:31:04 21.3 25 23.4
0035F777 2019-02-15 08:01:19 21.2 25 23.4
0035F777 2019-02-15 07:31:36 21.1 25 23.4
0035F777 2019-02-15 07:01:51 21.1 25 23.4
0035F777 2019-02-15 06:32:06 21.1 25 23.3
0035F777 2019-02-15 06:02:21 21.1 25 23.3
0035F777 2019-02-15 05:32:35 21.2 25 23.3
0035F777 2019-02-15 05:02:51 21.1 25 23.3
0035F777 2019-02-15 04:33:06 21.1 26 23.2
0035F777 2019-02-15 04:03:22 21.1 26 23
0035F777 2019-02-15 03:33:37 21.1 26 22.9
0035F777 2019-02-15 03:03:54 21.1 26 22.7
0035F777 2019-02-15 02:34:09 21.1 26 23.4
0035F777 2019-02-15 02:04:24 21 26 23.3
0035F777 2019-02-15 01:34:41 21.1 26 23.1
0035F777 2019-02-15 01:04:58 21.1 26 23
0035F777 2019-02-15 00:35:14 21.1 26 22.9
0035F777 2019-02-15 00:05:30 21.1 26 22.7
0035F777 2019-02-14 23:35:46 21.2 25 22.6
0035F777 2019-02-14 23:06:02 21.1 25 21.6
0035F777 2019-02-14 22:36:18 21.2 25 21.5
0035F777 2019-02-14 22:06:34 21.1 25 21.5
0035F777 2019-02-14 21:36:51 21.1 25 21.2
0035F777 2019-02-14 21:07:06 21.1 25 21
0035F777 2019-02-14 20:37:21 21.2 24 21
0035F777 2019-02-14 20:07:37 21.3 24 21
0035F777 2019-02-14 19:37:54 21.4 24 20.9
0035F777 2019-02-14 19:08:09 21.6 24 20.7
0035F777 2019-02-14 18:38:24 21.6 24 20.5
0035F777 2019-02-14 18:07:59 21.7 24 20.4
0035F777 2019-02-14 17:38:14 21.7 24 20.3
0035F777 2019-02-14 17:08:29 21.7 24 20
0035F777 2019-02-14 16:38:46 21.8 24 20.2
0035F777 2019-02-14 16:09:02 21.9 24 20
0035F777 2019-02-14 15:39:18 21.9 24 20.2
0035F777 2019-02-14 15:09:36 21.8 24 20.3
0035F777 2019-02-14 14:39:51 21.7 24 20.4
0035F777 2019-02-14 14:10:10 21.6 23 18.8
0035F777 2019-02-14 13:10:40 21.4 23 18.8
0035F777 2019-02-14 12:40:56 21.3 23 19.1
0035F777 2019-02-14 12:11:11 21.3 23 19.3
0035F777 2019-02-14 11:41:28 21.2 23 19.4
0035F777 2019-02-14 11:11:48 21.2 24 19.7
0035F777 2019-02-14 10:42:02 21 24 19.7
0035F777 2019-02-14 10:12:16 20.9 24 19.7
0035F777 2019-02-14 09:42:32 20.9 23 19.7
0035F777 2019-02-14 09:12:48 20.8 24 19.8
0035F777 2019-02-14 08:43:05 20.7 24 19.8
0035F777 2019-02-14 08:13:21 20.7 24 19.8
0035F777 2019-02-14 07:43:37 20.7 25 19.8
0035F777 2019-02-14 07:13:52 20.7 25 19.6
0035F777 2019-02-14 06:44:06 20.7 25 19.6
0035F777 2019-02-14 06:14:21 20.8 25 19.7
0035F777 2019-02-14 05:44:36 20.7 25 19.9
0035F777 2019-02-14 05:14:49 20.8 25 19.9
0035F777 2019-02-14 04:45:03 20.8 25 19.9
0035F777 2019-02-14 04:15:19 20.8 25 19.9
0035F777 2019-02-14 03:45:33 20.8 25 19.8
0035F777 2019-02-14 03:15:49 20.8 25 19.8
0035F777 2019-02-14 02:46:04 20.8 25 19.9
0035F777 2019-02-14 02:16:20 20.8 25 20.1
0035F777 2019-02-14 01:46:39 20.8 25 20.2
0035F777 2019-02-14 01:16:52 20.8 25 20.2
0035F777 2019-02-14 00:47:06 20.8 25 20.3
0035F777 2019-02-14 00:17:22 20.8 25 20.2
0035F777 2019-02-13 23:47:37 20.8 24 20.1
0035F777 2019-02-13 23:17:53 20.9 24 20
0035F777 2019-02-13 22:48:09 20.9 25 19.8
0035F777 2019-02-13 22:18:24 20.9 25 19.8
0035F777 2019-02-13 21:48:40 20.9 25 19.9
0035F777 2019-02-13 21:18:56 21 25 19.7
0035F777 2019-02-13 20:49:13 21.1 25 19.4
0035F777 2019-02-13 20:19:31 21.1 25 19.6
0035F777 2019-02-13 19:49:48 21.2 25 19.5
0035F777 2019-02-13 19:20:01 21.3 25 19.4
0035F777 2019-02-13 18:50:16 21.3 25 19.3
0035F777 2019-02-13 18:20:31 21.4 26 19.2
0035F777 2019-02-13 17:50:45 21.4 26 18.9
0035F777 2019-02-13 17:20:19 21.4 26 18.5
0035F777 2019-02-13 16:50:35 21.3 27 18.7
0035F777 2019-02-13 16:20:51 21.3 25 18.6
0035F777 2019-02-13 15:51:06 21.2 25 18.6
0035F777 2019-02-13 15:21:20 21.2 25 18.4
0035F777 2019-02-13 14:51:35 21.1 25 18.6
0035F777 2019-02-13 14:21:50 21.1 24 18.3
0035F777 2019-02-13 13:52:04 21.1 24 17.9
0035F777 2019-02-13 13:22:19 21.1 24 17.7
0035F777 2019-02-13 12:52:34 21.1 24 17.4
0035F777 2019-02-13 12:22:50 21.1 24 17.3
0035F777 2019-02-13 11:53:04 21 24 17.3
0035F777 2019-02-13 11:23:17 21 24 17.3
0035F777 2019-02-13 10:53:31 20.9 24 17.4
0035F777 2019-02-13 10:23:46 20.8 23 17.3
0035F777 2019-02-13 09:54:01 20.8 23 16.9
0035F777 2019-02-13 09:24:16 20.8 22 16.7
0035F777 2019-02-13 08:54:34 20.7 21 16.8
0035F777 2019-02-13 08:24:49 20.7 21 16.7
0035F777 2019-02-13 07:55:04 20.7 20 16.4
0035F777 2019-02-13 07:25:22 20.7 19 16.4
0035F777 2019-02-13 06:55:36 20.7 19 16.4
0035F777 2019-02-13 06:25:51 20.7 19 16.4
0035F777 2019-02-13 05:56:08 20.7 19 16.2
0035F777 2019-02-13 05:26:20 20.7 19 16.2
0035F777 2019-02-13 04:56:38 20.7 19 16.4
0035F777 2019-02-13 04:26:50 20.7 19 16.1
0035F777 2019-02-13 03:57:05 20.7 18 15.8
0035F777 2019-02-13 03:27:20 20.7 18 15.7
0035F777 2019-02-13 02:57:33 20.8 18 15.6
0035F777 2019-02-13 02:27:47 20.8 18 15.2
0035F777 2019-02-13 01:58:00 20.8 18 14.8
0035F777 2019-02-13 01:28:14 20.8 18 14.8
0035F777 2019-02-13 00:58:29 20.8 18 14.3
0035F777 2019-02-13 00:28:43 20.8 19 14
0035F777 2019-02-12 23:58:56 20.8 19 13.7
0035F777 2019-02-12 23:29:10 20.9 19 13
0035F777 2019-02-12 22:59:25 20.9 19 13
0035F777 2019-02-12 22:29:38 20.9 19 12.8
0035F777 2019-02-12 21:59:53 21 19 12.9
0035F777 2019-02-12 21:30:07 21.1 20 13
0035F777 2019-02-12 21:00:23 21.2 20 12.8
0035F777 2019-02-12 20:30:38 21.3 20 12.5
0035F777 2019-02-12 20:00:55 21.4 20 12.7
0035F777 2019-02-12 19:01:24 21.5 19 12.5
0035F777 2019-02-12 18:31:39 21.5 19 12.4
0035F777 2019-02-12 18:01:55 21.6 19 12.4
0035F777 2019-02-12 17:32:09 21.7 18 12.4
0035F777 2019-02-12 17:02:25 21.8 18 12.3
0035F777 2019-02-12 16:32:01 22 18 12.3
0035F777 2019-02-12 15:32:31 22.2 18 11.9
0035F777 2019-02-12 15:02:46 22.1 18 11.9
0035F777 2019-02-12 14:33:02 21.8 19 12
0035F777 2019-02-12 14:03:19 21.4 19 12.1
0035F777 2019-02-12 13:33:35 21.3 19 12.3
0035F777 2019-02-12 13:03:47 21.3 19 12.4
0035F777 2019-02-12 12:34:04 21.3 20 12.4
0035F777 2019-02-12 12:04:15 21.3 20 12.4
0035F777 2019-02-12 11:34:31 21.2 20 12.4
0035F777 2019-02-12 11:04:47 21.2 21 12.5
0035F777 2019-02-12 10:35:00 21.2 22 12.5
0035F777 2019-02-12 10:05:14 21 22 12.4
0035F777 2019-02-12 09:35:28 21 22 17.5
0035F777 2019-02-12 09:05:43 20.9 23 17.5
0035F777 2019-02-12 08:35:58 20.8 23 17.5
0035F777 2019-02-12 08:06:12 20.7 24 17.5
0035F777 2019-02-12 07:36:25 20.7 25 17.4
0035F777 2019-02-12 07:06:38 20.8 25 17.4
0035F777 2019-02-12 06:36:54 20.8 26 17.3
0035F777 2019-02-12 06:07:07 20.8 26 17.4
0035F777 2019-02-12 05:37:23 20.8 26 17.4
0035F777 2019-02-12 05:07:39 20.8 26 17.4
0035F777 2019-02-12 04:37:52 20.8 26 17.9
0035F777 2019-02-12 04:08:08 20.8 27 18
0035F777 2019-02-12 03:38:22 20.8 27 18.2
0035F777 2019-02-12 03:08:38 20.8 27 18.4
0035F777 2019-02-12 02:38:51 20.9 27 18.5
0035F777 2019-02-12 02:09:06 20.9 27 18.7
0035F777 2019-02-12 01:39:20 20.9 27 18.9
0035F777 2019-02-12 01:09:36 20.9 27 19.1
0035F777 2019-02-12 00:39:48 20.9 27 19.2
0035F777 2019-02-12 00:10:02 20.9 27 19.5
0035F777 2019-02-11 23:40:16 21 27 19.7
0035F777 2019-02-11 23:10:31 21 27 20
0035F777 2019-02-11 22:40:47 21.1 27 20.3
0035F777 2019-02-11 22:11:02 21.1 27 20.6
0035F777 2019-02-11 21:41:17 21.2 27 20.9
0035F777 2019-02-11 21:11:32 21.2 27 15.4
0035F777 2019-02-11 20:41:47 21.3 27 15.5
0035F777 2019-02-11 20:12:02 21.4 27 15.9
0035F777 2019-02-11 19:42:19 21.5 27 16.2
0035F777 2019-02-11 19:12:32 21.6 27 16.6
0035F777 2019-02-11 18:42:47 21.7 27 17.2
0035F777 2019-02-11 18:13:04 21.8 27 18.1
0035F777 2019-02-11 17:43:17 22 28 18.5
0035F777 2019-02-11 17:13:31 22 28 19.8
0035F777 2019-02-11 16:43:49 22.1 28 22.7
0035F777 2019-02-11 16:14:01 22 32 0